TimePST,TemperatureF,Dew PointF,Humidity,Sea Level PressureIn,VisibilityMPH,Wind Direction,Wind SpeedMPH,Gust SpeedMPH,PrecipitationIn,Events,Conditions,WindDirDegrees,DateUTC
12:55 AM,26.1,10.0,51,30.15,10.0,West,3.5,-,N/A,,Clear,260,2013-01-08 08:55:00
1:55 AM,26.1,10.0,51,30.14,10.0,Calm,Calm,-,N/A,,Clear,0,2013-01-08 09:55:00
2:55 AM,25.0,9.0,51,30.15,10.0,NNE,5.8,-,N/A,,Clear,20,2013-01-08 10:55:00
3:55 AM,25.0,10.9,55,30.15,10.0,West,4.6,-,N/A,,Clear,260,2013-01-08 11:55:00
4:55 AM,24.1,10.0,55,30.15,10.0,Calm,Calm,-,N/A,,Clear,0,2013-01-08 12:55:00
5:55 AM,24.1,10.9,57,30.18,10.0,Calm,Calm,-,N/A,,Clear,0,2013-01-08 13:55:00
6:55 AM,23.0,9.0,55,30.21,10.0,Calm,Calm,-,N/A,,Clear,0,2013-01-08 14:55:00
7:55 AM,28.0,10.9,49,30.25,10.0,Calm,Calm,-,N/A,,Clear,0,2013-01-08 15:55:00
8:55 AM,34.0,15.1,46,30.27,10.0,Calm,Calm,-,N/A,,Clear,0,2013-01-08 16:55:00
9:55 AM,37.9,17.1,43,30.28,10.0,Calm,Calm,-,N/A,,Clear,0,2013-01-08 17:55:00
11:55 AM,54.0,21.0,28,30.20,10.0,Calm,Calm,-,N/A,,Clear,0,2013-01-08 19:55:00
12:55 PM,57.9,21.9,25,30.18,10.0,SE,3.5,-,N/A,,Clear,140,2013-01-08 20:55:00
1:55 PM,61.0,25.0,25,30.17,10.0,SSE,3.5,-,N/A,,Clear,160,2013-01-08 21:55:00
2:55 PM,62.1,24.1,23,30.17,10.0,Calm,Calm,-,N/A,,Clear,0,2013-01-08 22:55:00
3:55 PM,64.0,24.1,22,30.16,10.0,Calm,Calm,-,N/A,,Clear,0,2013-01-08 23:55:00
4:55 PM,60.1,24.1,25,30.17,10.0,Calm,Calm,-,N/A,,Clear,0,2013-01-09 00:55:00
5:55 PM,48.0,19.9,33,30.21,10.0,Calm,Calm,-,N/A,,Clear,0,2013-01-09 01:55:00
6:55 PM,46.0,19.9,35,30.22,10.0,Calm,Calm,-,N/A,,Clear,0,2013-01-09 02:55:00
7:55 PM,42.1,19.0,40,30.24,10.0,Variable,3.5,-,N/A,,Clear,0,2013-01-09 03:55:00
8:55 PM,39.0,18.0,43,30.25,10.0,West,3.5,-,N/A,,Clear,280,2013-01-09 04:55:00
9:55 PM,37.9,19.0,47,30.26,10.0,Calm,Calm,-,N/A,,Clear,0,2013-01-09 05:55:00
10:55 PM,33.8,17.6,52,30.25,10.0,Calm,Calm,-,N/A,,Clear,0,2013-01-09 06:55:00
11:55 PM,34.0,17.1,50,30.25,10.0,NW,5.8,-,N/A,,Clear,320,2013-01-09 07:55:00